BAW2590 LEMD-LXGB

Flight info

Callsign BAW2590
Flight time N/A
Altitude 35000
Route VTB N10 INPAN DCT MOCEQ DCT VULPE N864 PIMOS
Aircraft A320/M-SDE3FGHIRWY/LB1

Departure

Time 2026-05-04 16:37
Airport Adolfo Suárez Madrid–Barajas Airport (LEMD)

Arrival

Time N/A
Airport Gibraltar Airport (LXGB)
Time Latitude Longitude Altitude Speed Heading
2026-05-04 16:09 40.49270 -3.58966 2022 ft 0 kts 269°
2026-05-04 16:29 40.49270 -3.58947 2036 ft 4 kts 269°
2026-05-04 16:30 40.49300 -3.58882 2030 ft 4 kts 179°
2026-05-04 16:31 40.49307 -3.58882 2030 ft 0 kts 179°
2026-05-04 16:32 40.49287 -3.58882 2032 ft 6 kts 179°
2026-05-04 16:33 40.49120 -3.58880 2022 ft 15 kts 179°
2026-05-04 16:33 40.48884 -3.58879 2027 ft 19 kts 180°
2026-05-04 16:34 40.48674 -3.58810 2027 ft 17 kts 180°
2026-05-04 16:34 40.48552 -3.58809 2024 ft 18 kts 180°
2026-05-04 16:35 40.48510 -3.58378 2011 ft 22 kts 89°
2026-05-04 16:35 40.48486 -3.57767 1993 ft 16 kts 86°
2026-05-04 16:36 40.48453 -3.57634 1995 ft 15 kts 102°
2026-05-04 16:36 40.48305 -3.57413 2001 ft 38 kts 142°
2026-05-04 16:37 40.47201 -3.56286 1983 ft 153 kts 142°
2026-05-04 16:37 40.46243 -3.55317 2041 ft 186 kts 141°
2026-05-04 16:37 40.44227 -3.53084 3224 ft 199 kts 139°
2026-05-04 16:38 40.41903 -3.50732 4362 ft 222 kts 148°
2026-05-04 16:39 40.37887 -3.46859 6400 ft 248 kts 146°
2026-05-04 16:39 40.35114 -3.44087 8043 ft 253 kts 146°
2026-05-04 16:40 40.32314 -3.41262 9730 ft 257 kts 146°
2026-05-04 16:40 40.29285 -3.38711 11160 ft 259 kts 168°
2026-05-04 16:41 40.25681 -3.38876 12141 ft 272 kts 206°
2026-05-04 16:41 40.20361 -3.42000 14226 ft 287 kts 204°
2026-05-04 16:42 40.13883 -3.43046 15117 ft 341 kts 188°
2026-05-04 16:43 40.09097 -3.43474 16289 ft 350 kts 188°
2026-05-04 16:43 40.04204 -3.43921 17559 ft 355 kts 188°
2026-05-04 16:43 40.01724 -3.44152 18200 ft 358 kts 188°
2026-05-04 16:44 39.91605 -3.45122 20456 ft 370 kts 189°
2026-05-04 16:45 39.86420 -3.45623 21530 ft 377 kts 189°
2026-05-04 16:46 39.78503 -3.46373 23152 ft 386 kts 189°
2026-05-04 16:46 39.73639 -3.48751 24091 ft 373 kts 224°
2026-05-04 16:47 39.70913 -3.54240 25030 ft 368 kts 246°
2026-05-04 16:47 39.67980 -3.59709 25943 ft 375 kts 229°
2026-05-04 16:48 39.62464 -3.66986 27262 ft 379 kts 228°
2026-05-04 16:48 39.60599 -3.69410 27707 ft 380 kts 228°
2026-05-04 16:49 39.57466 -3.73460 28394 ft 384 kts 225°
2026-05-04 16:49 39.52218 -3.77973 29356 ft 393 kts 215°
2026-05-04 16:50 39.47483 -3.81580 30141 ft 396 kts 216°
2026-05-04 16:50 39.43513 -3.84600 30602 ft 401 kts 216°
2026-05-04 16:51 39.38678 -3.88273 31199 ft 405 kts 216°
2026-05-04 16:51 39.36255 -3.90111 31610 ft 404 kts 216°
2026-05-04 16:51 39.31416 -3.93775 32485 ft 402 kts 216°
2026-05-04 16:52 39.26606 -3.97418 33320 ft 400 kts 216°
2026-05-04 16:52 39.24204 -3.99237 33758 ft 399 kts 216°
2026-05-04 16:53 39.19428 -4.02845 34512 ft 397 kts 216°
2026-05-04 16:53 39.12299 -4.08217 34976 ft 395 kts 216°
2026-05-04 16:54 39.09924 -4.09998 34967 ft 394 kts 216°
2026-05-04 16:55 38.95837 -4.20593 34977 ft 390 kts 216°
2026-05-04 16:56 38.84074 -4.29375 34992 ft 391 kts 216°
2026-05-04 16:57 38.77056 -4.34610 34979 ft 391 kts 216°
2026-05-04 16:58 38.67656 -4.41598 34999 ft 390 kts 216°
2026-05-04 17:00 38.53554 -4.52031 34951 ft 391 kts 216°
2026-05-04 17:01 38.41773 -4.60717 34977 ft 393 kts 216°
2026-05-04 17:02 38.32247 -4.67637 34986 ft 397 kts 211°
2026-05-04 17:02 38.26858 -4.69526 34988 ft 412 kts 197°
2026-05-04 17:03 38.24021 -4.70100 34989 ft 412 kts 197°
2026-05-04 17:03 38.15661 -4.71796 34991 ft 412 kts 197°
2026-05-04 17:04 38.04377 -4.74109 34965 ft 411 kts 197°
2026-05-04 17:05 37.93041 -4.76411 34969 ft 412 kts 197°
2026-05-04 17:06 37.84546 -4.78137 34937 ft 412 kts 197°
2026-05-04 17:07 37.78949 -4.79265 34608 ft 405 kts 197°
2026-05-04 17:07 37.77069 -4.79644 34454 ft 403 kts 197°
2026-05-04 17:07 37.73410 -4.80381 34139 ft 401 kts 197°
2026-05-04 17:07 37.70664 -4.80937 33898 ft 399 kts 197°
2026-05-04 17:08 37.67929 -4.81496 33621 ft 397 kts 197°
2026-05-04 17:08 37.62524 -4.82583 32848 ft 390 kts 197°
2026-05-04 17:08 37.59850 -4.83118 32385 ft 387 kts 197°
2026-05-04 17:09 37.57200 -4.83651 31943 ft 384 kts 197°
2026-05-04 17:09 37.54568 -4.84182 31509 ft 382 kts 197°
2026-05-04 17:09 37.51950 -4.84711 31063 ft 380 kts 197°
2026-05-04 17:10 37.46778 -4.85755 30222 ft 377 kts 197°
2026-05-04 17:10 37.39061 -4.87306 28942 ft 370 kts 197°
2026-05-04 17:11 37.36525 -4.87812 28516 ft 367 kts 197°
2026-05-04 17:11 37.34009 -4.88314 28171 ft 364 kts 197°
2026-05-04 17:11 37.29025 -4.89311 27390 ft 361 kts 197°
2026-05-04 17:12 37.26549 -4.89809 27000 ft 359 kts 197°
2026-05-04 17:12 37.21651 -4.90783 26207 ft 357 kts 197°
2026-05-04 17:13 37.14326 -4.92237 24972 ft 354 kts 196°
2026-05-04 17:14 37.07051 -4.93674 23687 ft 352 kts 195°
2026-05-04 17:14 37.04586 -4.93934 23196 ft 359 kts 185°
2026-05-04 17:14 36.99618 -4.93681 22307 ft 355 kts 184°
2026-05-04 17:15 36.97188 -4.93555 21873 ft 352 kts 184°
2026-05-04 17:15 36.92315 -4.93307 21002 ft 349 kts 184°
2026-05-04 17:16 36.87479 -4.93065 20124 ft 346 kts 184°
2026-05-04 17:16 36.80317 -4.92694 18834 ft 341 kts 184°
2026-05-04 17:17 36.77943 -4.92568 18405 ft 341 kts 184°
2026-05-04 17:17 36.70903 -4.92206 17074 ft 334 kts 183°
2026-05-04 17:18 36.68585 -4.92089 16661 ft 331 kts 184°
2026-05-04 17:18 36.64026 -4.91862 15831 ft 327 kts 184°
2026-05-04 17:19 36.59498 -4.91630 15029 ft 324 kts 184°
2026-05-04 17:19 36.55012 -4.91402 14216 ft 320 kts 183°
2026-05-04 17:20 36.50583 -4.91181 13390 ft 319 kts 183°
2026-05-04 17:20 36.46180 -4.90957 12600 ft 314 kts 183°
2026-05-04 17:20 36.44050 -4.90848 12225 ft 312 kts 183°
2026-05-04 17:21 36.39729 -4.90619 11439 ft 309 kts 183°
2026-05-04 17:21 36.36678 -4.90456 10908 ft 306 kts 182°
2026-05-04 17:22 36.34560 -4.90346 10533 ft 305 kts 183°
2026-05-04 17:22 36.32465 -4.90237 10156 ft 304 kts 182°
2026-05-04 17:23 36.26336 -4.89921 9057 ft 285 kts 182°
2026-05-04 17:23 36.24382 -4.89818 8676 ft 281 kts 184°
2026-05-04 17:23 36.20514 -4.89623 7968 ft 280 kts 183°
2026-05-04 17:24 36.18564 -4.89528 7614 ft 280 kts 183°
2026-05-04 17:24 36.13009 -4.90285 6604 ft 261 kts 226°
2026-05-04 17:25 36.12101 -4.92142 6292 ft 252 kts 260°
2026-05-04 17:25 36.12365 -4.96343 5701 ft 234 kts 278°
2026-05-04 17:26 36.12882 -5.00229 5111 ft 224 kts 278°
2026-05-04 17:26 36.13519 -5.05469 4393 ft 186 kts 277°
2026-05-04 17:27 36.13856 -5.08442 3960 ft 163 kts 277°
2026-05-04 17:27 36.14133 -5.10937 3611 ft 134 kts 278°
2026-05-04 17:28 36.14378 -5.13165 3298 ft 131 kts 280°
2026-05-04 17:29 36.14744 -5.16493 2821 ft 131 kts 278°
2026-05-04 17:29 36.15105 -5.19808 2344 ft 129 kts 278°
2026-05-04 17:30 36.15459 -5.23083 1864 ft 127 kts 277°
2026-05-04 17:31 36.15446 -5.25265 1553 ft 128 kts 264°
2026-05-04 17:31 36.15362 -5.28529 1024 ft 126 kts 264°
2026-05-04 17:32 36.15296 -5.30711 569 ft 129 kts 260°
2026-05-04 17:33 36.15148 -5.33979 53 ft 127 kts 263°
2026-05-04 17:33 36.15114 -5.34813 20 ft 73 kts 271°